Falls City, NE

2:14 PM CST on November 22, 2019 (GMT -0600)
Brenner

Weather History for KFNB - October, 2019

Change the Weather History Date:

Sunday, October 20, 2019

  Actual Average Record
Temperature  
Mean Temperature 54 °F -  
Max Temperature 66 °F 64 °F 88 °F (1979)
Min Temperature 42 °F 40 °F 20 °F (1989)
Degree Days  
Heating Degree Days 11    
Growing Degree Days 4 (Base 50)    
Moisture  
Dew Point 47 °F    
Average Humidity 84    
Maximum Humidity 97    
Minimum Humidity 47    
Precipitation  
Precipitation 0.61 in - - ()
Sea Level Pressure  
Sea Level Pressure 29.71 in    
Wind  
Wind Speed 7 mph (ESE)    
Max Wind Speed 24 mph    
Max Gust Speed 36 mph    
Visibility 7 miles    
Events Fog , Rain , Thunderstorm    
Averages and records for this station are not official NWS values.
T = Trace of Precipitation, MM = Missing Value Source: NWS Daily Summary

Daily Weather History Graph

Daily Weather History Graph

Search for Another Location

Airport or City:

Astronomy

Oct. 20, 2019 Rise Set
Actual Time 7:38 AM CDT 6:35 PM CDT
Civil Twilight 7:10 AM CDT 7:03 PM CDT
Nautical Twilight 6:38 AM CDT 7:34 PM CDT
Astronomical Twilight 6:07 AM CDT 8:06 PM CDT
Moon 11:45 PM CDT (10/20) 2:06 PM CDT (10/20)
Length of Visible Light 11h 52m
Length of Day
10h 57m
Waning Gibbous, 59% of the Moon is Illuminated
Oct 20
Waning Gibbous
Oct 21
Last Quarter
Oct 27
New
Nov 4
First Quarter
Nov 12
Full

Hourly Weather History & Observations

Time (CDT) Temp. Windchill Dew Point Humidity Pressure Visibility Wind Dir Wind Speed Gust Speed Precip Events Conditions
12:53 AM 44.1 °F 40.8 °F 41.0 °F 89% 29.81 in 10.0 mi SSE 5.8 mph - N/A   Clear
1:53 AM 45.0 °F 42.6 °F 41.0 °F 86% 29.81 in 10.0 mi SE 4.6 mph - N/A   Clear
2:53 AM 45.0 °F 42.6 °F 41.0 °F 86% 29.81 in 10.0 mi South 4.6 mph - N/A   Clear
3:53 AM 43.0 °F 40.3 °F 39.9 °F 89% 29.79 in 10.0 mi SSE 4.6 mph - N/A   Clear
4:53 AM 42.1 °F 39.2 °F 39.9 °F 92% 29.79 in 10.0 mi SE 4.6 mph - N/A   Clear
5:53 AM 43.0 °F 41.3 °F 39.9 °F 89% 29.80 in 7.0 mi SSE 3.5 mph - N/A   Clear
6:25 AM 42.1 °F 40.2 °F 39.9 °F 92% 29.80 in 1.8 mi SE 3.5 mph - N/A   Clear
6:53 AM 42.1 °F 40.2 °F 39.9 °F 92% 29.81 in 2.5 mi SE 3.5 mph - N/A   Clear
7:02 AM 43.0 °F - 39.9 °F 89% 29.80 in 3.0 mi Calm Calm - N/A   Clear
7:10 AM 43.0 °F 40.3 °F 41.0 °F 93% 29.80 in 1.8 mi East 4.6 mph - N/A   Clear
7:18 AM 42.1 °F 39.2 °F 39.9 °F 92% 29.80 in 0.8 mi East 4.6 mph - N/A   Mist
7:40 AM 42.1 °F 39.2 °F 39.9 °F 92% 29.80 in 0.2 mi SE 4.6 mph - N/A Fog Fog
7:53 AM 42.1 °F 38.4 °F 39.9 °F 92% 29.81 in 0.2 mi SE 5.8 mph - N/A Fog Fog
8:20 AM 44.1 °F - 42.1 °F 93% 29.80 in 1.0 mi North - - N/A   Mist
8:24 AM 45.0 °F - 43.0 °F 93% 29.80 in 2.0 mi North - - N/A   Scattered Clouds
8:33 AM 46.0 °F 43.1 °F 44.1 °F 93% 29.80 in 3.0 mi ESE 5.8 mph - N/A   Partly Cloudy
8:53 AM 46.9 °F - 45.0 °F 93% 29.81 in 5.0 mi SE 6.9 mph - N/A   Clear
9:53 AM 50.0 °F - 48.0 °F 93% 29.82 in 4.0 mi ENE 4.6 mph - N/A   Clear
10:53 AM 59.0 °F - 52.0 °F 78% 29.78 in 10.0 mi SE 12.7 mph - N/A   Clear
11:53 AM 63.0 °F - 48.9 °F 60% 29.75 in 10.0 mi SE 17.3 mph 33.4 mph N/A   Clear
12:53 PM 64.0 °F - 46.9 °F 54% 29.73 in 10.0 mi SE 24.2 mph 35.7 mph N/A   Clear
1:53 PM 64.0 °F - 45.0 °F 50% 29.69 in 10.0 mi SE 18.4 mph 32.2 mph N/A   Partly Cloudy
2:53 PM 66.0 °F - 45.0 °F 47% 29.67 in 10.0 mi SSE 18.4 mph 29.9 mph N/A   Mostly Cloudy
3:53 PM 63.0 °F - 46.9 °F 56% 29.65 in 10.0 mi ESE 15.0 mph 19.6 mph 0.00 in Rain Light Rain
4:53 PM 59.0 °F - 50.0 °F 72% 29.67 in 10.0 mi East 3.5 mph - 0.00 in Rain Light Rain
5:53 PM 60.1 °F - 48.0 °F 64% 29.63 in 10.0 mi ESE 13.8 mph 24.2 mph 0.00 in   Partly Cloudy
6:53 PM 59.0 °F - 48.0 °F 67% 29.63 in 10.0 mi ESE 10.4 mph - N/A   Scattered Clouds
7:53 PM 59.0 °F - 50.0 °F 72% 29.63 in 10.0 mi ESE 17.3 mph 23.0 mph 0.00 in Rain Light Rain
8:03 PM 57.9 °F - 50.0 °F 75% 29.63 in 10.0 mi ESE 10.4 mph 20.7 mph 0.01 in Rain , Thunderstorm Light Thunderstorms and Rain
8:18 PM 57.9 °F - 50.0 °F 75% 29.63 in 10.0 mi Variable 4.6 mph - 0.01 in Rain Light Rain
8:24 PM 57.0 °F - 51.1 °F 81% 29.64 in 10.0 mi NNW 6.9 mph - 0.01 in Thunderstorm Thunderstorm
8:53 PM 55.9 °F - 52.0 °F 87% 29.60 in 7.0 mi East 16.1 mph 20.7 mph 0.19 in Rain , Thunderstorm Light Thunderstorms and Rain
9:01 PM 55.9 °F - 52.0 °F 87% 29.58 in 9.0 mi East 13.8 mph - 0.01 in Rain Rain
9:10 PM 55.9 °F - 52.0 °F 87% 29.59 in 8.0 mi East 11.5 mph 20.7 mph 0.02 in Rain , Thunderstorm Light Rain
9:25 PM 55.0 °F - 52.0 °F 89% 29.60 in 5.0 mi ENE 5.8 mph 18.4 mph 0.06 in Rain Rain
9:35 PM 55.0 °F - 53.1 °F 93% 29.60 in 2.0 mi Variable 3.5 mph - 0.16 in Rain , Thunderstorm Heavy Thunderstorms and Rain
9:46 PM 55.0 °F - 53.1 °F 93% 29.62 in 9.0 mi NW 9.2 mph - 0.16 in Rain , Thunderstorm Light Thunderstorms and Rain
9:53 PM 55.0 °F - 53.1 °F 93% 29.65 in 8.0 mi West 10.4 mph - 0.18 in Rain , Thunderstorm Light Rain
10:00 PM 55.0 °F - 53.1 °F 93% 29.64 in 3.0 mi WNW 6.9 mph - 0.06 in Rain Heavy Rain
10:02 PM 55.0 °F - 53.1 °F 93% 29.65 in 2.5 mi West 6.9 mph - 0.07 in Rain Heavy Rain
10:12 PM 55.0 °F - 53.1 °F 93% 29.63 in 1.5 mi North 6.9 mph - 0.20 in Rain Heavy Rain
10:19 PM 55.0 °F - 53.1 °F 93% 29.62 in 3.0 mi Calm Calm - 0.21 in Rain Rain
10:53 PM 52.0 °F - 51.1 °F 97% 29.57 in 8.0 mi ENE 4.6 mph - 0.22 in   Scattered Clouds
11:53 PM 55.0 °F - 52.0 °F 89% 29.58 in 10.0 mi SSE 9.2 mph - 0.02 in Rain Light Rain